| time (UTC) | temp F | wind direction | speed MPH | gust MPH | rain 1hr in | rain 24hr in | rain mn in | humidity % | barometer mb |
| 20260831230216 | 81 | 203 | 3.0 | 4.0 | 0.03 | 0.50 | 0.46 | 84 | 1012.5 |
| 20260831225216 | 82 | 0 | 3.0 | 5.0 | 0.13 | 0.51 | 0.46 | 86 | 1012.5 |
| 20260831224216 | 81 | 0 | 2.0 | 4.0 | 0.15 | 0.51 | 0.46 | 86 | 1012.2 |
| 20260831223336 | 81 | 135 | 2.0 | 3.0 | 0.23 | 0.51 | 0.46 | 85 | 1012.0 |
| 20260831222216 | 81 | 0.0 | 0.0 | 0.22 | 0.50 | 0.45 | 84 | 1012.4 | |
| 20260831221216 | 82 | 225 | 1.0 | 3.0 | 0.22 | 0.50 | 0.45 | 82 | 1012.4 |
| 20260831220216 | 83 | 0 | 2.0 | 4.0 | 0.20 | 0.48 | 0.43 | 80 | 1012.3 |
| 20260831215236 | 84 | 0.0 | 1.0 | 0.10 | 0.39 | 0.33 | 77 | 1012.3 | |
| 20260831214216 | 85 | 0 | 2.0 | 4.0 | 0.08 | 0.37 | 0.31 | 73 | 1012.1 |
| 20260831213216 | 86 | 0 | 4.0 | 6.0 | 0.00 | 0.29 | 0.23 | 69 | 1012.4 |
| 20260831212256 | 86 | 0 | 4.0 | 5.0 | 0.00 | 0.29 | 0.23 | 68 | 1012.3 |
| 20260831211216 | 86 | 0 | 5.0 | 9.0 | 0.00 | 0.29 | 0.23 | 69 | 1011.8 |
| 20260831210215 | 86 | 0 | 3.0 | 6.0 | 0.00 | 0.29 | 0.23 | 70 | 1011.8 |
| 20260831205216 | 85 | 180 | 2.0 | 4.0 | 0.00 | 0.29 | 0.23 | 72 | 1012.1 |
| 20260831204216 | 84 | 180 | 1.0 | 2.0 | 0.00 | 0.29 | 0.23 | 75 | 1012.3 |
| 20260831203235 | 83 | 248 | 1.0 | 2.0 | 0.00 | 0.29 | 0.23 | 76 | 1012.6 |
| 20260831202215 | 83 | 0 | 2.0 | 4.0 | 0.01 | 0.29 | 0.23 | 76 | 1012.8 |
| 20260831201216 | 82 | 0 | 3.0 | 4.0 | 0.04 | 0.29 | 0.23 | 76 | 1012.9 |
| 20260831200215 | 82 | 0 | 6.0 | 10.0 | 0.04 | 0.29 | 0.23 | 80 | 1012.9 |
| 20260831195215 | 82 | 248 | 3.0 | 4.0 | 0.06 | 0.31 | 0.23 | 82 | 1012.6 |
| 20260831194215 | 82 | 0.0 | 1.0 | 0.08 | 0.31 | 0.23 | 82 | 1012.4 | |
| 20260831193215 | 82 | 203 | 1.0 | 2.0 | 0.13 | 0.31 | 0.23 | 79 | 1012.5 |
| 20260831192215 | 82 | 180 | 1.0 | 2.0 | 0.12 | 0.30 | 0.22 | 78 | 1012.9 |
| 20260831191217 | 81 | 0 | 3.0 | 4.0 | 0.09 | 0.27 | 0.19 | 77 | 1012.7 |
| 20260831190218 | 81 | 0 | 4.0 | 7.0 | 0.09 | 0.27 | 0.19 | 73 | 1012.5 |
| 20260831185236 | 81 | 0 | 5.0 | 8.0 | 0.07 | 0.25 | 0.17 | 72 | 1012.8 |
| 20260831184217 | 83 | 0 | 6.0 | 9.0 | 0.05 | 0.23 | 0.16 | 67 | 1012.6 |
| 20260831183217 | 85 | 0 | 9.0 | 13.0 | 0.00 | 0.18 | 0.10 | 60 | 1012.9 |
| 20260831182217 | 87 | 0 | 5.0 | 9.0 | 0.00 | 0.18 | 0.10 | 59 | 1013.2 |
| 20260831181217 | 87 | 0 | 8.0 | 12.0 | 0.00 | 0.18 | 0.10 | 59 | 1012.9 |
| 20260831180215 | 86 | 0 | 11.0 | 16.0 | 0.00 | 0.18 | 0.10 | 60 | 1012.8 |
| 20260831175217 | 85 | 0 | 9.0 | 15.0 | 0.00 | 0.18 | 0.10 | 61 | 1013.0 |
| 20260831174217 | 85 | 0 | 11.0 | 18.0 | 0.00 | 0.18 | 0.10 | 61 | 1013.1 |
| 20260831173218 | 84 | 0 | 7.0 | 12.0 | 0.00 | 0.18 | 0.10 | 64 | 1013.3 |
| 20260831172237 | 83 | 0 | 7.0 | 16.0 | 0.00 | 0.18 | 0.10 | 65 | 1013.3 |
| 20260831171217 | 83 | 0 | 10.0 | 17.0 | 0.00 | 0.18 | 0.10 | 66 | 1013.5 |
| 20260831170217 | 82 | 0 | 8.0 | 15.0 | 0.00 | 0.18 | 0.10 | 67 | 1013.7 |
| 20260831165217 | 81 | 158 | 4.0 | 9.0 | 0.00 | 0.18 | 0.10 | 69 | 1013.5 |
| 20260831164217 | 80 | 0 | 7.0 | 12.0 | 0.00 | 0.18 | 0.10 | 71 | 1013.5 |
| 20260831163257 | 79 | 0 | 9.0 | 14.0 | 0.00 | 0.18 | 0.10 | 73 | 1013.6 |
| 20260831162217 | 77 | 180 | 7.0 | 15.0 | 0.00 | 0.18 | 0.10 | 76 | 1013.7 |
| 20260831161217 | 76 | 0.0 | 0.0 | 0.00 | 0.18 | 0.10 | 77 | 1013.7 | |
| 20260831160217 | 76 | 0.0 | 0.0 | 0.00 | 0.18 | 0.10 | 79 | 1013.8 | |
| 20260831155217 | 75 | 0.0 | 0.0 | 0.00 | 0.18 | 0.10 | 81 | 1013.9 | |
| 20260831154217 | 74 | 0.0 | 0.0 | 0.01 | 0.18 | 0.10 | 83 | 1013.9 | |
| 20260831153217 | 73 | 0.0 | 0.0 | 0.01 | 0.18 | 0.10 | 84 | 1013.8 | |
| 20260831152218 | 72 | 0.0 | 0.0 | 0.01 | 0.18 | 0.10 | 85 | 1013.9 | |
| 20260831151217 | 72 | 0.0 | 0.0 | 0.01 | 0.18 | 0.10 | 86 | 1014.0 | |
| 20260831150217 | 72 | 0.0 | 0.0 | 0.01 | 0.18 | 0.10 | 86 | 1013.9 | |
| 20260831145217 | 72 | 0.0 | 0.0 | 0.01 | 0.18 | 0.10 | 86 | 1014.1 | |
| 20260831144217 | 72 | 0.0 | 0.0 | 0.01 | 0.17 | 0.09 | 87 | 1014.1 | |
| 20260831143217 | 71 | 0.0 | 0.0 | 0.01 | 0.17 | 0.09 | 87 | 1013.9 | |
| 20260831142217 | 71 | 0.0 | 0.0 | 0.01 | 0.17 | 0.09 | 88 | 1013.7 | |
| 20260831141217 | 71 | 0.0 | 0.0 | 0.02 | 0.17 | 0.09 | 88 | 1013.9 | |
| 20260831140217 | 71 | 0.0 | 0.0 | 0.02 | 0.17 | 0.09 | 88 | 1014.0 | |
| 20260831135217 | 70 | 0.0 | 0.0 | 0.02 | 0.17 | 0.09 | 89 | 1014.0 | |
| 20260831134217 | 70 | 0.0 | 0.0 | 0.03 | 0.16 | 0.08 | 88 | 1014.2 | |
| 20260831133217 | 70 | 0.0 | 0.0 | 0.04 | 0.16 | 0.08 | 87 | 1014.2 | |
| 20260831132217 | 70 | 0.0 | 0.0 | 0.06 | 0.16 | 0.08 | 87 | 1014.4 | |
| 20260831131217 | 70 | 0.0 | 0.0 | 0.07 | 0.15 | 0.07 | 86 | 1014.3 | |
| 20260831130217 | 70 | 0.0 | 0.0 | 0.07 | 0.15 | 0.07 | 86 | 1014.1 | |
| 20260831125217 | 71 | 0.0 | 0.0 | 0.07 | 0.24 | 0.07 | 85 | 1013.9 | |
| 20260831124217 | 71 | 0.0 | 0.0 | 0.05 | 0.22 | 0.05 | 83 | 1014.2 | |
| 20260831123217 | 71 | 0.0 | 0.0 | 0.04 | 0.21 | 0.04 | 82 | 1014.0 | |
| 20260831122217 | 72 | 0.0 | 0.0 | 0.02 | 0.19 | 0.02 | 81 | 1013.8 | |
| 20260831121217 | 72 | 0.0 | 0.0 | 0.00 | 0.17 | 0.00 | 80 | 1014.2 | |
| 20260831120217 | 72 | 0.0 | 0.0 | 0.00 | 0.17 | 0.00 | 78 | 1013.7 | |
| 20260831115217 | 72 | 0.0 | 0.0 | 0.00 | 0.18 | 0.00 | 78 | 1013.5 | |
| 20260831114217 | 73 | 0.0 | 0.0 | 0.00 | 0.18 | 0.00 | 77 | 1013.8 | |
| 20260831113237 | 73 | 0.0 | 0.0 | 0.00 | 0.18 | 0.00 | 77 | 1013.2 | |
| 20260831112237 | 73 | 0.0 | 0.0 | 0.00 | 0.18 | 0.00 | 75 | 1012.9 | |
| 20260831111217 | 74 | 0.0 | 0.0 | 0.00 | 0.18 | 0.00 | 73 | 1013.0 | |
| 20260831110237 | 74 | 0.0 | 0.0 | 0.00 | 0.18 | 0.00 | 73 | 1012.9 | |
| 20260831105237 | 74 | 0.0 | 0.0 | 0.00 | 0.18 | 0.00 | 73 | 1012.9 | |
| 20260831104216 | 74 | 0.0 | 0.0 | 0.00 | 0.18 | 0.00 | 73 | 1012.8 | |
| 20260831103216 | 74 | 0.0 | 0.0 | 0.00 | 0.18 | 0.00 | 73 | 1012.9 | |
| 20260831102317 | 74 | 0.0 | 0.0 | 0.00 | 0.18 | 0.00 | 74 | 1012.8 | |
| 20260831101217 | 73 | 0.0 | 0.0 | 0.00 | 0.18 | 0.00 | 74 | 1012.9 | |
| 20260831100216 | 74 | 0.0 | 0.0 | 0.00 | 0.18 | 0.00 | 74 | 1012.9 | |
| 20260831095216 | 74 | 0.0 | 0.0 | 0.00 | 0.18 | 0.00 | 75 | 1012.8 | |
| 20260831094217 | 73 | 0.0 | 0.0 | 0.00 | 0.18 | 0.00 | 75 | 1012.7 | |
| 20260831093216 | 73 | 0.0 | 0.0 | 0.00 | 0.18 | 0.00 | 75 | 1012.7 | |
| 20260831092217 | 73 | 0.0 | 0.0 | 0.00 | 0.18 | 0.00 | 76 | 1012.8 | |
| 20260831091217 | 73 | 0.0 | 0.0 | 0.00 | 0.18 | 0.00 | 76 | 1012.9 | |
| 20260831090216 | 73 | 0.0 | 0.0 | 0.00 | 0.18 | 0.00 | 77 | 1012.9 | |
| 20260831085257 | 73 | 0.0 | 0.0 | 0.00 | 0.18 | 0.00 | 77 | 1013.1 | |
| 20260831084216 | 73 | 0.0 | 0.0 | 0.00 | 0.18 | 0.00 | 78 | 1013.0 | |
| 20260831083216 | 73 | 0.0 | 0.0 | 0.00 | 0.18 | 0.00 | 78 | 1013.0 | |
| 20260831082236 | 74 | 0.0 | 0.0 | 0.00 | 0.18 | 0.00 | 78 | 1013.0 | |
| 20260831081236 | 74 | 0.0 | 0.0 | 0.00 | 0.18 | 0.00 | 78 | 1013.1 | |
| 20260831080216 | 74 | 0.0 | 0.0 | 0.00 | 0.18 | 0.00 | 78 | 1013.1 | |
| 20260831075216 | 74 | 0.0 | 0.0 | 0.00 | 0.18 | 0.00 | 77 | 1013.1 | |
| 20260831074216 | 74 | 0.0 | 0.0 | 0.00 | 0.18 | 0.00 | 78 | 1013.1 | |
| 20260831073216 | 75 | 0.0 | 0.0 | 0.00 | 0.18 | 0.00 | 77 | 1013.3 | |
| 20260831072216 | 75 | 0.0 | 0.0 | 0.00 | 0.18 | 0.00 | 77 | 1013.5 | |
| 20260831071216 | 75 | 0.0 | 0.0 | 0.00 | 0.18 | 0.00 | 77 | 1013.5 | |
| 20260831070216 | 76 | 0.0 | 0.0 | 0.00 | 0.18 | 0.00 | 76 | 1013.4 | |
| 20260831065217 | 76 | 0.0 | 0.0 | 0.00 | 0.18 | 0.00 | 75 | 1013.5 | |
| 20260831064236 | 76 | 0.0 | 0.0 | 0.00 | 0.18 | 0.00 | 75 | 1013.5 | |
| 20260831063216 | 76 | 0.0 | 0.0 | 0.00 | 0.18 | 0.00 | 75 | 1013.6 | |
| 20260831062216 | 76 | 0.0 | 0.0 | 0.00 | 0.18 | 0.00 | 74 | 1013.6 | |
| 20260831061216 | 77 | 0.0 | 0.0 | 0.00 | 0.18 | 0.00 | 74 | 1013.5 | |
| 20260831060236 | 77 | 0.0 | 0.0 | 0.00 | 0.18 | 0.00 | 73 | 1013.6 | |
| 20260831055241 | 77 | 0.0 | 0.0 | 0.00 | 0.18 | 0.00 | 74 | 1013.6 | |
| 20260831054316 | 77 | 0.0 | 0.0 | 0.00 | 0.18 | 0.00 | 73 | 1013.5 | |
| 20260831053216 | 77 | 0.0 | 0.0 | 0.00 | 0.18 | 0.00 | 72 | 1013.4 | |
| 20260831052236 | 77 | 0.0 | 0.0 | 0.00 | 0.18 | 0.00 | 75 | 1013.4 | |
| 20260831051216 | 76 | 0.0 | 0.0 | 0.00 | 0.18 | 0.00 | 78 | 1013.4 | |
| 20260831050216 | 75 | 0.0 | 0.0 | 0.00 | 0.18 | 0.00 | 80 | 1013.4 | |
| 20260831045217 | 75 | 0.0 | 0.0 | 0.00 | 0.18 | 0.18 | 82 | 1013.1 | |
| 20260831044216 | 75 | 0.0 | 0.0 | 0.00 | 0.18 | 0.18 | 85 | 1013.0 | |
| 20260831043217 | 74 | 0.0 | 0.0 | 0.00 | 0.18 | 0.18 | 88 | 1013.1 | |
| 20260831042237 | 74 | 0.0 | 0.0 | 0.00 | 0.18 | 0.18 | 89 | 1013.0 | |
| 20260831041217 | 74 | 0.0 | 0.0 | 0.00 | 0.18 | 0.18 | 90 | 1013.0 | |
| 20260831040216 | 74 | 0.0 | 0.0 | 0.02 | 0.18 | 0.18 | 91 | 1013.3 | |
| 20260831035217 | 74 | 0.0 | 0.0 | 0.02 | 0.18 | 0.18 | 91 | 1013.4 | |
| 20260831034217 | 74 | 0.0 | 0.0 | 0.02 | 0.18 | 0.18 | 91 | 1013.6 | |
| 20260831033216 | 74 | 0.0 | 0.0 | 0.02 | 0.18 | 0.18 | 91 | 1013.9 | |
| 20260831032237 | 74 | 0.0 | 0.0 | 0.02 | 0.18 | 0.18 | 90 | 1014.2 | |
| 20260831031217 | 74 | 0.0 | 0.0 | 0.02 | 0.18 | 0.18 | 90 | 1014.4 | |
| 20260831030216 | 74 | 0.0 | 0.0 | 0.01 | 0.16 | 0.16 | 90 | 1014.8 | |
| 20260831025217 | 74 | 0.0 | 0.0 | 0.01 | 0.16 | 0.16 | 90 | 1014.7 | |
| 20260831024236 | 74 | 0.0 | 0.0 | 0.01 | 0.16 | 0.16 | 90 | 1014.7 | |
| 20260831023217 | 74 | 0.0 | 0.0 | 0.01 | 0.16 | 0.16 | 90 | 1014.6 | |
| 20260831022216 | 74 | 0.0 | 0.0 | 0.01 | 0.16 | 0.16 | 89 | 1014.3 | |
| 20260831021216 | 74 | 0.0 | 0.0 | 0.01 | 0.16 | 0.16 | 89 | 1014.8 | |
| 20260831020216 | 74 | 0.0 | 0.0 | 0.00 | 0.15 | 0.15 | 89 | 1014.5 | |
| 20260831015216 | 74 | 0.0 | 0.0 | 0.00 | 0.15 | 0.15 | 88 | 1014.7 | |
| 20260831014216 | 74 | 0.0 | 0.0 | 0.00 | 0.15 | 0.15 | 88 | 1014.5 | |
| 20260831013216 | 74 | 0.0 | 0.0 | 0.00 | 0.15 | 0.15 | 88 | 1014.4 | |
| 20260831012216 | 74 | 0.0 | 0.0 | 0.00 | 0.15 | 0.15 | 88 | 1014.3 | |
| 20260831011216 | 74 | 0.0 | 0.0 | 0.00 | 0.15 | 0.15 | 88 | 1014.2 | |
| 20260831010216 | 74 | 0.0 | 0.0 | 0.00 | 0.15 | 0.15 | 88 | 1014.0 | |
| 20260831005216 | 74 | 0.0 | 0.0 | 0.00 | 0.15 | 0.15 | 87 | 1014.0 | |
| 20260831004216 | 74 | 0.0 | 0.0 | 0.00 | 0.15 | 0.15 | 87 | 1013.9 | |
| 20260831003236 | 74 | 0.0 | 0.0 | 0.00 | 0.15 | 0.15 | 87 | 1013.8 | |
| 20260831002217 | 74 | 0.0 | 0.0 | 0.00 | 0.15 | 0.15 | 87 | 1013.9 | |
| 20260831001236 | 74 | 0.0 | 0.0 | 0.00 | 0.15 | 0.15 | 87 | 1013.7 | |
| 20260831000218 | 74 | 0.0 | 0.0 | 0.00 | 0.15 | 0.15 | 87 | 1014.2 | |
| 20260830235216 | 74 | 0.0 | 0.0 | 0.01 | 0.15 | 0.15 | 87 | 1014.3 | |
| 20260830234216 | 74 | 138 | 1.0 | 0.0 | 0.01 | 0.15 | 0.15 | 88 | 1014.1 |
| 20260830233236 | 74 | 90 | 1.0 | 2.0 | 0.01 | 0.15 | 0.15 | 88 | 1014.0 |
| 20260830232217 | 74 | 0 | 2.0 | 4.0 | 0.01 | 0.15 | 0.15 | 88 | 1014.4 |
| 20260830231236 | 74 | 180 | 2.0 | 6.0 | 0.02 | 0.15 | 0.15 | 88 | 1014.2 |